Time,TemperatureF,DewpointF,PressureIn,WindDirection,WindDirectionDegrees,WindSpeedMPH,WindSpeedGustMPH,Humidity,HourlyPrecipIn,Conditions,Clouds,dailyrainin,SolarRadiationWatts/m^2,SoftwareType,DateUTC
2013-07-05 00:00:00,57.0,42.4,30.22,WNW,292,4.0,14.0,58,0.00,,,0.00,0,WeatherCatV1.20B653,2013-07-05 06:00:00,
2013-07-05 00:05:00,56.7,42.5,30.21,WNW,292,8.0,14.0,59,0.00,,,0.00,0,WeatherCatV1.20B653,2013-07-05 06:05:00,
2013-07-05 00:10:00,56.7,42.5,30.21,WNW,292,8.0,14.0,59,0.00,,,0.00,0,WeatherCatV1.20B653,2013-07-05 06:10:00,
2013-07-05 00:15:00,56.7,42.5,30.21,WNW,292,8.0,14.0,59,0.00,,,0.00,0,WeatherCatV1.20B653,2013-07-05 06:15:00,
2013-07-05 00:20:00,56.7,42.1,30.21,WNW,292,8.0,16.0,58,0.00,,,0.00,0,WeatherCatV1.20B653,2013-07-05 06:20:00,
2013-07-05 00:25:00,56.7,42.1,30.21,WNW,292,8.0,16.0,58,0.00,,,0.00,0,WeatherCatV1.20B653,2013-07-05 06:25:00,
2013-07-05 00:30:00,56.7,42.1,30.21,WNW,292,8.0,16.0,58,0.00,,,0.00,0,WeatherCatV1.20B653,2013-07-05 06:30:00,
2013-07-05 00:35:00,56.5,42.3,30.21,WNW,292,4.0,13.0,59,0.00,,,0.00,0,WeatherCatV1.20B653,2013-07-05 06:35:00,
2013-07-05 00:40:00,56.5,42.3,30.21,WNW,292,4.0,13.0,59,0.00,,,0.00,0,WeatherCatV1.20B653,2013-07-05 06:40:00,
2013-07-05 00:45:00,56.5,42.3,30.21,WNW,292,4.0,13.0,59,0.00,,,0.00,0,WeatherCatV1.20B653,2013-07-05 06:45:00,
2013-07-05 00:50:00,56.0,41.9,30.20,NW,315,2.0,6.0,59,0.00,,,0.00,0,WeatherCatV1.20B653,2013-07-05 06:50:00,
2013-07-05 00:55:00,56.0,41.9,30.20,NW,315,2.0,6.0,59,0.00,,,0.00,0,WeatherCatV1.20B653,2013-07-05 06:55:00,
2013-07-05 01:00:00,56.0,41.9,30.20,NW,315,2.0,6.0,59,0.00,,,0.00,0,WeatherCatV1.20B653,2013-07-05 07:00:00,
2013-07-05 01:05:00,55.7,42.0,30.20,WNW,292,8.0,14.0,60,0.00,,,0.00,0,WeatherCatV1.20B653,2013-07-05 07:05:00,
2013-07-05 01:10:00,55.7,42.0,30.20,WNW,292,8.0,14.0,60,0.00,,,0.00,0,WeatherCatV1.20B653,2013-07-05 07:10:00,
2013-07-05 01:15:00,55.3,41.7,30.20,WNW,292,5.0,13.0,60,0.00,,,0.00,0,WeatherCatV1.20B653,2013-07-05 07:15:00,
2013-07-05 01:20:00,55.3,41.7,30.20,WNW,292,5.0,13.0,60,0.00,,,0.00,0,WeatherCatV1.20B653,2013-07-05 07:20:00,
2013-07-05 01:25:00,55.3,41.7,30.20,WNW,292,5.0,13.0,60,0.00,,,0.00,0,WeatherCatV1.20B653,2013-07-05 07:25:00,
2013-07-05 01:30:00,55.0,41.4,30.20,NW,315,3.0,12.0,60,0.00,,,0.00,0,WeatherCatV1.20B653,2013-07-05 07:30:00,
2013-07-05 01:35:00,55.0,41.4,30.20,NW,315,3.0,12.0,60,0.00,,,0.00,0,WeatherCatV1.20B653,2013-07-05 07:35:00,
2013-07-05 01:40:00,55.0,41.4,30.20,NW,315,3.0,12.0,60,0.00,,,0.00,0,WeatherCatV1.20B653,2013-07-05 07:40:00,
2013-07-05 01:45:00,54.5,40.9,30.20,NW,315,2.0,8.0,60,0.00,,,0.00,0,WeatherCatV1.20B653,2013-07-05 07:45:00,
2013-07-05 01:50:00,54.5,40.9,30.20,NW,315,2.0,8.0,60,0.00,,,0.00,0,WeatherCatV1.20B653,2013-07-05 07:50:00,
2013-07-05 01:55:00,54.5,40.9,30.20,NW,315,2.0,8.0,60,0.00,,,0.00,0,WeatherCatV1.20B653,2013-07-05 07:55:00,
2013-07-05 02:00:00,54.4,40.8,30.19,North,0,2.0,8.0,60,0.00,,,0.00,0,WeatherCatV1.20B653,2013-07-05 08:00:00,
2013-07-05 02:05:00,54.4,40.8,30.19,North,0,2.0,8.0,60,0.00,,,0.00,0,WeatherCatV1.20B653,2013-07-05 08:05:00,
2013-07-05 02:10:00,54.4,40.8,30.19,North,0,2.0,8.0,60,0.00,,,0.00,0,WeatherCatV1.20B653,2013-07-05 08:10:00,
2013-07-05 02:15:00,54.4,40.8,30.19,North,0,2.0,8.0,60,0.00,,,0.00,0,WeatherCatV1.20B653,2013-07-05 08:15:00,
2013-07-05 02:20:00,53.3,41.0,30.19,North,0,0.0,3.0,63,0.00,,,0.00,0,WeatherCatV1.20B653,2013-07-05 08:20:00,
2013-07-05 02:25:00,53.3,41.0,30.19,North,0,0.0,3.0,63,0.00,,,0.00,0,WeatherCatV1.20B653,2013-07-05 08:25:00,
2013-07-05 02:30:00,53.3,41.0,30.19,North,0,0.0,3.0,63,0.00,,,0.00,0,WeatherCatV1.20B653,2013-07-05 08:30:00,
2013-07-05 02:35:00,53.1,40.4,30.19,North,0,0.0,4.0,62,0.00,,,0.00,0,WeatherCatV1.20B653,2013-07-05 08:35:00,
2013-07-05 02:40:00,53.1,40.4,30.19,North,0,0.0,4.0,62,0.00,,,0.00,0,WeatherCatV1.20B653,2013-07-05 08:40:00,
2013-07-05 02:45:00,53.1,40.4,30.19,North,0,0.0,4.0,62,0.00,,,0.00,0,WeatherCatV1.20B653,2013-07-05 08:45:00,
2013-07-05 02:50:00,52.8,41.4,30.18,North,0,0.0,4.0,65,0.00,,,0.00,0,WeatherCatV1.20B653,2013-07-05 08:50:00,
2013-07-05 02:55:00,52.8,41.4,30.18,North,0,0.0,4.0,65,0.00,,,0.00,0,WeatherCatV1.20B653,2013-07-05 08:55:00,
2013-07-05 03:00:00,52.8,41.4,30.18,North,0,0.0,4.0,65,0.00,,,0.00,0,WeatherCatV1.20B653,2013-07-05 09:00:00,
2013-07-05 03:05:00,52.9,41.5,30.18,North,0,0.0,3.0,65,0.00,,,0.00,0,WeatherCatV1.20B653,2013-07-05 09:05:00,
2013-07-05 03:10:00,52.9,41.5,30.18,North,0,0.0,3.0,65,0.00,,,0.00,0,WeatherCatV1.20B653,2013-07-05 09:10:00,
2013-07-05 03:15:00,52.9,41.5,30.18,North,0,0.0,3.0,65,0.00,,,0.00,0,WeatherCatV1.20B653,2013-07-05 09:15:00,
2013-07-05 03:20:00,53.5,42.0,30.18,North,0,1.0,5.0,65,0.00,,,0.00,0,WeatherCatV1.20B653,2013-07-05 09:20:00,
2013-07-05 03:25:00,53.5,42.0,30.18,North,0,1.0,5.0,65,0.00,,,0.00,0,WeatherCatV1.20B653,2013-07-05 09:25:00,
2013-07-05 03:30:00,53.5,42.0,30.18,North,0,1.0,5.0,65,0.00,,,0.00,0,WeatherCatV1.20B653,2013-07-05 09:30:00,
2013-07-05 03:35:00,53.3,42.2,30.18,North,0,0.0,0.0,66,0.00,,,0.00,0,WeatherCatV1.20B653,2013-07-05 09:35:00,
2013-07-05 03:40:00,53.3,42.2,30.18,North,0,0.0,0.0,66,0.00,,,0.00,0,WeatherCatV1.20B653,2013-07-05 09:40:00,
2013-07-05 03:45:00,53.3,42.2,30.18,North,0,0.0,0.0,66,0.00,,,0.00,0,WeatherCatV1.20B653,2013-07-05 09:45:00,
2013-07-05 03:50:00,52.9,42.6,30.18,North,0,1.0,6.0,68,0.00,,,0.00,0,WeatherCatV1.20B653,2013-07-05 09:50:00,
2013-07-05 03:55:00,52.9,42.6,30.18,North,0,1.0,6.0,68,0.00,,,0.00,0,WeatherCatV1.20B653,2013-07-05 09:55:00,
2013-07-05 04:00:00,52.9,42.6,30.18,North,0,1.0,6.0,68,0.00,,,0.00,0,WeatherCatV1.20B653,2013-07-05 10:00:00,
2013-07-05 04:05:00,53.1,42.4,30.18,North,0,0.0,2.0,67,0.00,,,0.00,0,WeatherCatV1.20B653,2013-07-05 10:05:00,
2013-07-05 04:10:00,53.1,42.4,30.18,North,0,0.0,2.0,67,0.00,,,0.00,0,WeatherCatV1.20B653,2013-07-05 10:10:00,
2013-07-05 04:15:00,53.1,42.4,30.18,North,0,0.0,2.0,67,0.00,,,0.00,0,WeatherCatV1.20B653,2013-07-05 10:15:00,
2013-07-05 04:20:00,53.3,42.2,30.18,North,0,1.0,5.0,66,0.00,,,0.00,0,WeatherCatV1.20B653,2013-07-05 10:20:00,
2013-07-05 04:25:00,53.3,42.2,30.18,North,0,1.0,5.0,66,0.00,,,0.00,0,WeatherCatV1.20B653,2013-07-05 10:25:00,
2013-07-05 04:30:00,53.3,42.2,30.18,North,0,1.0,5.0,66,0.00,,,0.00,0,WeatherCatV1.20B653,2013-07-05 10:30:00,
2013-07-05 04:35:00,54.1,43.0,30.18,North,0,0.0,3.0,66,0.00,,,0.00,0,WeatherCatV1.20B653,2013-07-05 10:35:00,
2013-07-05 04:40:00,54.1,43.0,30.18,North,0,0.0,3.0,66,0.00,,,0.00,0,WeatherCatV1.20B653,2013-07-05 10:40:00,
2013-07-05 04:45:00,54.1,43.0,30.18,North,0,0.0,3.0,66,0.00,,,0.00,0,WeatherCatV1.20B653,2013-07-05 10:45:00,
2013-07-05 04:50:00,54.1,43.0,30.18,North,0,0.0,3.0,66,0.00,,,0.00,0,WeatherCatV1.20B653,2013-07-05 10:50:00,
2013-07-05 04:55:00,54.1,43.0,30.18,North,0,0.0,3.0,66,0.00,,,0.00,0,WeatherCatV1.20B653,2013-07-05 10:55:00,
2013-07-05 05:07:00,54.1,43.0,30.18,North,0,0.0,3.0,66,0.00,,,0.00,0,WeatherCatV1.20B653,2013-07-05 11:07:00,
2013-07-05 05:12:00,54.5,42.6,30.19,NW,326,0.0,0.0,64,0.00,,,0.00,0,WeatherCatV1.20B653,2013-07-05 11:12:00,
2013-07-05 05:17:00,54.7,43.2,30.19,NW,326,0.0,0.0,65,0.00,,,0.00,0,WeatherCatV1.20B653,2013-07-05 11:17:00,
2013-07-05 05:22:00,54.7,43.2,30.19,NW,326,0.0,0.0,65,0.00,,,0.00,0,WeatherCatV1.20B653,2013-07-05 11:22:00,
2013-07-05 05:27:00,54.7,43.2,30.19,NW,326,0.0,0.0,65,0.00,,,0.00,0,WeatherCatV1.20B653,2013-07-05 11:27:00,
2013-07-05 05:32:00,54.5,42.6,30.19,NW,326,0.0,0.0,64,0.00,,,0.00,0,WeatherCatV1.20B653,2013-07-05 11:32:00,
2013-07-05 05:37:00,54.5,41.8,30.19,NW,326,0.0,0.0,62,0.00,,,0.00,0,WeatherCatV1.20B653,2013-07-05 11:37:00,
2013-07-05 05:42:00,54.5,42.6,30.19,NW,326,0.0,0.0,64,0.00,,,0.00,0,WeatherCatV1.20B653,2013-07-05 11:42:00,
2013-07-05 05:47:00,54.2,42.7,30.18,NW,326,0.0,0.0,65,0.00,,,0.00,0,WeatherCatV1.20B653,2013-07-05 11:47:00,
2013-07-05 05:50:00,54.1,43.0,30.18,NW,326,0.0,0.0,66,0.00,,,0.00,5,WeatherCatV1.20B653,2013-07-05 11:50:00,
2013-07-05 05:55:00,53.9,41.6,30.18,NW,318,6.0,6.0,63,0.00,,,0.00,7,WeatherCatV1.20B653,2013-07-05 11:55:00,
2013-07-05 06:00:00,54.7,41.9,30.19,WNW,285,7.0,8.0,62,0.00,,,0.00,11,WeatherCatV1.20B653,2013-07-05 12:00:00,
2013-07-05 06:05:00,55.1,42.3,30.19,West,278,0.0,0.0,62,0.00,,,0.00,14,WeatherCatV1.20B653,2013-07-05 12:05:00,
2013-07-05 06:10:00,55.4,42.6,30.19,West,278,0.0,4.0,62,0.00,,,0.00,19,WeatherCatV1.20B653,2013-07-05 12:10:00,
2013-07-05 06:15:00,55.7,42.0,30.19,West,278,3.0,5.0,60,0.00,,,0.00,25,WeatherCatV1.20B653,2013-07-05 12:15:00,
2013-07-05 06:20:00,56.0,41.9,30.19,West,278,5.0,6.0,59,0.00,,,0.00,28,WeatherCatV1.20B653,2013-07-05 12:20:00,
2013-07-05 06:25:00,56.3,41.7,30.19,West,264,4.0,6.0,58,0.00,,,0.00,39,WeatherCatV1.20B653,2013-07-05 12:25:00,
2013-07-05 06:30:00,56.5,42.3,30.19,West,264,0.0,4.0,59,0.00,,,0.00,44,WeatherCatV1.20B653,2013-07-05 12:30:00,
2013-07-05 06:35:00,56.5,42.3,30.19,West,264,0.0,0.0,59,0.00,,,0.00,49,WeatherCatV1.20B653,2013-07-05 12:35:00,
2013-07-05 06:40:00,56.5,42.3,30.19,West,264,0.0,0.0,59,0.00,,,0.00,55,WeatherCatV1.20B653,2013-07-05 12:40:00,
2013-07-05 06:45:00,56.5,43.2,30.18,West,264,0.0,0.0,61,0.00,,,0.00,67,WeatherCatV1.20B653,2013-07-05 12:45:00,
2013-07-05 06:50:00,56.6,42.9,30.18,West,264,0.0,0.0,60,0.00,,,0.00,60,WeatherCatV1.20B653,2013-07-05 12:50:00,
2013-07-05 06:55:00,56.7,43.0,30.18,West,264,0.0,0.0,60,0.00,,,0.00,65,WeatherCatV1.20B653,2013-07-05 12:55:00,
2013-07-05 07:00:00,57.0,43.7,30.18,West,264,3.0,3.0,61,0.00,,,0.00,70,WeatherCatV1.20B653,2013-07-05 13:00:00,
2013-07-05 07:06:00,57.5,43.7,30.18,West,261,2.0,4.0,60,0.00,,,0.00,84,WeatherCatV1.20B653,2013-07-05 13:06:00,
2013-07-05 07:11:00,57.5,43.7,30.18,West,261,0.0,0.0,60,0.00,,,0.00,104,WeatherCatV1.20B653,2013-07-05 13:11:00,
2013-07-05 07:16:00,57.5,44.6,30.18,West,261,0.0,0.0,62,0.00,,,0.00,130,WeatherCatV1.20B653,2013-07-05 13:16:00,
2013-07-05 07:21:00,57.6,44.7,30.18,West,261,0.0,0.0,62,0.00,,,0.00,123,WeatherCatV1.20B653,2013-07-05 13:21:00,
2013-07-05 07:26:00,57.8,44.4,30.18,West,263,0.0,4.0,61,0.00,,,0.00,125,WeatherCatV1.20B653,2013-07-05 13:26:00,
2013-07-05 07:31:00,58.3,44.9,30.18,West,263,0.0,1.0,61,0.00,,,0.00,139,WeatherCatV1.20B653,2013-07-05 13:31:00,
2013-07-05 07:36:00,58.7,44.0,30.18,West,263,0.0,0.0,58,0.00,,,0.00,132,WeatherCatV1.20B653,2013-07-05 13:36:00,
2013-07-05 07:41:00,59.0,46.0,30.18,West,263,0.0,0.0,62,0.00,,,0.00,118,WeatherCatV1.20B653,2013-07-05 13:41:00,
2013-07-05 07:46:00,59.3,45.0,30.18,West,263,0.0,0.0,59,0.00,,,0.00,84,WeatherCatV1.20B653,2013-07-05 13:46:00,
2013-07-05 07:51:00,59.5,45.2,30.18,West,263,0.0,0.0,59,0.00,,,0.00,81,WeatherCatV1.20B653,2013-07-05 13:51:00,
2013-07-05 07:56:00,59.6,44.8,30.18,West,263,0.0,0.0,58,0.00,,,0.00,83,WeatherCatV1.20B653,2013-07-05 13:56:00,
2013-07-05 08:01:00,59.9,43.7,30.18,West,263,0.0,0.0,55,0.00,,,0.00,106,WeatherCatV1.20B653,2013-07-05 14:01:00,
2013-07-05 08:06:00,60.1,45.3,30.18,West,263,0.0,0.0,58,0.00,,,0.00,128,WeatherCatV1.20B653,2013-07-05 14:06:00,
2013-07-05 08:11:00,60.4,44.6,30.18,West,263,0.0,0.0,56,0.00,,,0.00,148,WeatherCatV1.20B653,2013-07-05 14:11:00,
2013-07-05 08:16:00,60.7,44.4,30.19,West,263,0.0,0.0,55,0.00,,,0.00,162,WeatherCatV1.20B653,2013-07-05 14:16:00,
2013-07-05 08:21:00,61.0,44.7,30.19,West,263,0.0,0.0,55,0.00,,,0.00,160,WeatherCatV1.20B653,2013-07-05 14:21:00,
2013-07-05 08:26:00,61.2,46.3,30.19,West,263,0.0,0.0,58,0.00,,,0.00,146,WeatherCatV1.20B653,2013-07-05 14:26:00,
2013-07-05 08:31:00,61.2,45.8,30.18,West,263,0.0,0.0,57,0.00,,,0.00,155,WeatherCatV1.20B653,2013-07-05 14:31:00,
2013-07-05 08:36:00,61.3,46.4,30.18,West,263,0.0,0.0,58,0.00,,,0.00,155,WeatherCatV1.20B653,2013-07-05 14:36:00,
2013-07-05 08:41:00,61.6,46.2,30.18,West,263,0.0,0.0,57,0.00,,,0.00,176,WeatherCatV1.20B653,2013-07-05 14:41:00,
2013-07-05 08:46:00,62.0,45.6,30.19,West,263,0.0,1.0,55,0.00,,,0.00,187,WeatherCatV1.20B653,2013-07-05 14:46:00,
2013-07-05 08:51:00,62.3,46.4,30.19,West,263,0.0,0.0,56,0.00,,,0.00,195,WeatherCatV1.20B653,2013-07-05 14:51:00,
2013-07-05 08:56:00,62.9,44.5,30.19,West,263,0.0,3.0,51,0.00,,,0.00,533,WeatherCatV1.20B653,2013-07-05 14:56:00,
2013-07-05 09:01:00,64.0,45.0,30.18,West,261,0.0,0.0,50,0.00,,,0.00,500,WeatherCatV1.20B653,2013-07-05 15:01:00,
2013-07-05 09:06:00,65.5,45.3,30.18,ESE,109,0.0,5.0,48,0.00,,,0.00,486,WeatherCatV1.20B653,2013-07-05 15:06:00,
2013-07-05 09:11:00,66.4,43.8,30.18,ESE,107,0.0,1.0,44,0.00,,,0.00,262,WeatherCatV1.20B653,2013-07-05 15:11:00,
2013-07-05 09:16:00,67.1,42.6,30.18,East,95,0.0,0.0,41,0.00,,,0.00,456,WeatherCatV1.20B653,2013-07-05 15:16:00,
2013-07-05 09:21:00,67.9,42.7,30.18,SW,233,11.0,14.0,40,0.00,,,0.00,535,WeatherCatV1.20B653,2013-07-05 15:21:00,
2013-07-05 09:26:00,68.9,42.2,30.18,WSW,253,6.0,12.0,38,0.00,,,0.00,538,WeatherCatV1.20B653,2013-07-05 15:26:00,
2013-07-05 09:31:00,69.6,41.5,30.18,WSW,257,12.0,16.0,36,0.00,,,0.00,454,WeatherCatV1.20B653,2013-07-05 15:31:00,
2013-07-05 09:36:00,69.6,40.7,30.18,SW,232,11.0,18.0,35,0.00,,,0.00,259,WeatherCatV1.20B653,2013-07-05 15:36:00,
2013-07-05 09:41:00,69.3,40.5,30.18,WSW,254,13.0,13.0,35,0.00,,,0.00,290,WeatherCatV1.20B653,2013-07-05 15:41:00,
2013-07-05 09:46:00,69.9,40.2,30.17,SSW,213,11.0,18.0,34,0.00,,,0.00,686,WeatherCatV1.20B653,2013-07-05 15:46:00,
2013-07-05 09:51:00,70.8,40.3,30.17,WNW,292,9.0,12.0,33,0.00,,,0.00,748,WeatherCatV1.20B653,2013-07-05 15:51:00,
2013-07-05 09:56:00,72.0,41.3,30.17,NW,313,8.0,24.0,33,0.00,,,0.00,839,WeatherCatV1.20B653,2013-07-05 15:56:00,
2013-07-05 10:01:00,72.5,40.1,30.17,WSW,251,5.0,12.0,31,0.00,,,0.00,408,WeatherCatV1.20B653,2013-07-05 16:01:00,
2013-07-05 10:06:00,71.6,39.3,30.17,NW,323,9.0,17.0,31,0.00,,,0.00,267,WeatherCatV1.20B653,2013-07-05 16:06:00,
2013-07-05 10:11:00,71.5,40.1,30.17,WSW,241,25.0,25.0,32,0.00,,,0.00,811,WeatherCatV1.20B653,2013-07-05 16:11:00,
2013-07-05 10:16:00,72.0,40.5,30.16,SW,226,22.0,22.0,32,0.00,,,0.00,841,WeatherCatV1.20B653,2013-07-05 16:16:00,
2013-07-05 10:21:00,72.5,40.1,30.16,West,271,10.0,19.0,31,0.00,,,0.00,788,WeatherCatV1.20B653,2013-07-05 16:21:00,
2013-07-05 10:26:00,72.5,39.3,30.16,WNW,298,10.0,20.0,30,0.00,,,0.00,533,WeatherCatV1.20B653,2013-07-05 16:26:00,
2013-07-05 10:31:00,71.8,39.5,30.16,SW,236,12.0,21.0,31,0.00,,,0.00,355,WeatherCatV1.20B653,2013-07-05 16:31:00,
2013-07-05 10:36:00,72.0,39.7,30.16,WSW,251,18.0,21.0,31,0.00,,,0.00,308,WeatherCatV1.20B653,2013-07-05 16:36:00,
2013-07-05 10:41:00,71.8,39.5,30.16,West,277,19.0,19.0,31,0.00,,,0.00,419,WeatherCatV1.20B653,2013-07-05 16:41:00,
2013-07-05 10:46:00,72.1,39.0,30.16,West,265,12.0,27.0,30,0.00,,,0.00,776,WeatherCatV1.20B653,2013-07-05 16:46:00,
2013-07-05 10:51:00,72.8,38.7,30.16,NW,319,10.0,25.0,29,0.00,,,0.00,593,WeatherCatV1.20B653,2013-07-05 16:51:00,
2013-07-05 10:56:00,73.0,40.6,30.16,West,267,4.0,18.0,31,0.00,,,0.00,507,WeatherCatV1.20B653,2013-07-05 16:56:00,
2013-07-05 11:01:00,73.3,40.0,30.16,NNW,328,18.0,18.0,30,0.00,,,0.00,487,WeatherCatV1.20B653,2013-07-05 17:01:00,
2013-07-05 11:06:00,73.2,39.9,30.16,SW,234,6.0,14.0,30,0.00,,,0.00,285,WeatherCatV1.20B653,2013-07-05 17:06:00,
2013-07-05 11:11:00,72.7,40.3,30.16,SSW,209,7.0,16.0,31,0.00,,,0.00,264,WeatherCatV1.20B653,2013-07-05 17:11:00,
2013-07-05 11:16:00,72.1,39.8,30.16,SW,216,7.0,11.0,31,0.00,,,0.00,230,WeatherCatV1.20B653,2013-07-05 17:16:00,
2013-07-05 11:21:00,72.1,39.8,30.16,WSW,246,5.0,8.0,31,0.00,,,0.00,215,WeatherCatV1.20B653,2013-07-05 17:21:00,
2013-07-05 11:26:00,72.1,40.6,30.16,WSW,258,3.0,9.0,32,0.00,,,0.00,211,WeatherCatV1.20B653,2013-07-05 17:26:00,
2013-07-05 11:31:00,72.1,39.8,30.16,WSW,256,9.0,18.0,31,0.00,,,0.00,222,WeatherCatV1.20B653,2013-07-05 17:31:00,
2013-07-05 11:36:00,72.0,38.9,30.16,SSW,205,3.0,16.0,30,0.00,,,0.00,245,WeatherCatV1.20B653,2013-07-05 17:36:00,
2013-07-05 11:41:00,72.1,39.8,30.16,SW,216,2.0,6.0,31,0.00,,,0.00,273,WeatherCatV1.20B653,2013-07-05 17:41:00,
2013-07-05 11:46:00,72.5,40.1,30.16,WSW,243,5.0,9.0,31,0.00,,,0.00,289,WeatherCatV1.20B653,2013-07-05 17:46:00,
2013-07-05 11:51:00,72.8,39.5,30.16,WSW,258,8.0,13.0,30,0.00,,,0.00,304,WeatherCatV1.20B653,2013-07-05 17:51:00,
2013-07-05 11:56:00,73.0,39.7,30.16,WSW,248,0.0,3.0,30,0.00,,,0.00,329,WeatherCatV1.20B653,2013-07-05 17:56:00,
2013-07-05 12:01:00,73.3,38.2,30.16,SE,124,4.0,12.0,28,0.00,,,0.00,382,WeatherCatV1.20B653,2013-07-05 18:01:00,
2013-07-05 12:06:00,73.9,39.6,30.16,SSW,200,13.0,14.0,29,0.00,,,0.00,417,WeatherCatV1.20B653,2013-07-05 18:06:00,
2013-07-05 12:11:00,74.2,39.0,30.16,WSW,251,7.0,10.0,28,0.00,,,0.00,463,WeatherCatV1.20B653,2013-07-05 18:11:00,
2013-07-05 12:16:00,74.7,38.5,30.16,West,260,10.0,10.0,27,0.00,,,0.00,595,WeatherCatV1.20B653,2013-07-05 18:16:00,
2013-07-05 12:21:00,75.6,39.2,30.16,SW,224,6.0,18.0,27,0.00,,,0.00,971,WeatherCatV1.20B653,2013-07-05 18:21:00,
2013-07-05 12:26:00,76.0,39.6,30.16,West,263,16.0,21.0,27,0.00,,,0.00,971,WeatherCatV1.20B653,2013-07-05 18:26:00,
2013-07-05 12:31:00,76.0,39.6,30.15,WSW,258,6.0,17.0,27,0.00,,,0.00,570,WeatherCatV1.20B653,2013-07-05 18:31:00,
2013-07-05 12:36:00,76.1,39.7,30.15,SW,215,2.0,13.0,27,0.00,,,0.00,512,WeatherCatV1.20B653,2013-07-05 18:36:00,
2013-07-05 12:41:00,75.8,39.4,30.15,WNW,298,12.0,17.0,27,0.00,,,0.00,415,WeatherCatV1.20B653,2013-07-05 18:41:00,
2013-07-05 12:46:00,75.4,39.1,30.15,West,271,11.0,19.0,27,0.00,,,0.00,438,WeatherCatV1.20B653,2013-07-05 18:46:00,
2013-07-05 12:51:00,75.8,39.4,30.15,WNW,289,19.0,19.0,27,0.00,,,0.00,929,WeatherCatV1.20B653,2013-07-05 18:51:00,
2013-07-05 12:56:00,76.8,39.3,30.15,WSW,253,8.0,18.0,26,0.00,,,0.00,929,WeatherCatV1.20B653,2013-07-05 18:56:00,
2013-07-05 13:01:00,77.0,40.4,30.14,SSW,203,10.0,12.0,27,0.00,,,0.00,582,WeatherCatV1.20B653,2013-07-05 19:01:00,
2013-07-05 13:06:00,77.0,38.5,30.14,SW,215,5.0,19.0,25,0.00,,,0.00,545,WeatherCatV1.20B653,2013-07-05 19:06:00,
2013-07-05 13:11:00,76.7,39.2,30.14,WSW,239,8.0,17.0,26,0.00,,,0.00,530,WeatherCatV1.20B653,2013-07-05 19:11:00,
2013-07-05 13:16:00,77.6,39.0,30.14,West,272,17.0,19.0,25,0.00,,,0.00,880,WeatherCatV1.20B653,2013-07-05 19:16:00,
2013-07-05 13:21:00,77.7,40.1,30.14,SSW,202,6.0,14.0,26,0.00,,,0.00,927,WeatherCatV1.20B653,2013-07-05 19:21:00,
2013-07-05 13:26:00,78.5,39.7,30.14,North,349,7.0,9.0,25,0.00,,,0.00,1300,WeatherCatV1.20B653,2013-07-05 19:26:00,
2013-07-05 13:31:00,78.5,39.7,30.13,South,172,14.0,28.0,25,0.00,,,0.00,577,WeatherCatV1.20B653,2013-07-05 19:31:00,
2013-07-05 13:36:00,78.5,38.7,30.13,WSW,248,20.0,27.0,24,0.00,,,0.00,1057,WeatherCatV1.20B653,2013-07-05 19:36:00,
2013-07-05 13:41:00,79.0,39.1,30.13,WSW,246,7.0,27.0,24,0.00,,,0.00,1140,WeatherCatV1.20B653,2013-07-05 19:41:00,
2013-07-05 13:46:00,79.8,38.7,30.13,WSW,239,13.0,24.0,23,0.00,,,0.00,1121,WeatherCatV1.20B653,2013-07-05 19:46:00,
2013-07-05 13:51:00,79.9,39.9,30.13,West,265,8.0,14.0,24,0.00,,,0.00,1112,WeatherCatV1.20B653,2013-07-05 19:51:00,
2013-07-05 13:56:00,80.3,40.2,30.13,NNW,329,6.0,19.0,24,0.00,,,0.00,1168,WeatherCatV1.20B653,2013-07-05 19:56:00,
2013-07-05 14:01:00,79.9,38.8,30.12,WSW,241,10.0,19.0,23,0.00,,,0.00,880,WeatherCatV1.20B653,2013-07-05 20:01:00,
2013-07-05 14:06:00,79.6,39.6,30.12,SW,234,13.0,17.0,24,0.00,,,0.00,1181,WeatherCatV1.20B653,2013-07-05 20:06:00,
2013-07-05 14:11:00,79.6,39.6,30.12,WSW,237,18.0,20.0,24,0.00,,,0.00,501,WeatherCatV1.20B653,2013-07-05 20:11:00,
2013-07-05 14:16:00,79.2,39.3,30.12,SW,227,5.0,14.0,24,0.00,,,0.00,1175,WeatherCatV1.20B653,2013-07-05 20:16:00,
2013-07-05 14:21:00,79.8,38.7,30.12,NW,309,6.0,16.0,23,0.00,,,0.00,1038,WeatherCatV1.20B653,2013-07-05 20:21:00,
2013-07-05 14:26:00,80.1,40.0,30.12,West,264,0.0,7.0,24,0.00,,,0.00,1015,WeatherCatV1.20B653,2013-07-05 20:26:00,
2013-07-05 14:31:00,80.9,40.7,30.11,NW,326,6.0,14.0,24,0.00,,,0.00,982,WeatherCatV1.20B653,2013-07-05 20:31:00,
2013-07-05 14:36:00,81.4,38.9,30.11,WSW,253,12.0,16.0,22,0.00,,,0.00,936,WeatherCatV1.20B653,2013-07-05 20:36:00,
2013-07-05 14:41:00,80.7,39.4,30.11,WSW,253,7.0,18.0,23,0.00,,,0.00,273,WeatherCatV1.20B653,2013-07-05 20:41:00,
2013-07-05 14:46:00,79.4,39.4,30.12,WNW,298,5.0,14.0,24,0.00,,,0.00,266,WeatherCatV1.20B653,2013-07-05 20:46:00,
2013-07-05 14:51:00,78.3,42.5,30.12,NNW,347,17.0,20.0,28,0.00,,,0.00,324,WeatherCatV1.20B653,2013-07-05 20:51:00,
2013-07-05 14:56:00,78.1,39.4,30.12,NW,305,3.0,5.0,25,0.00,,,0.00,922,WeatherCatV1.20B653,2013-07-05 20:56:00,
2013-07-05 15:01:00,78.6,38.8,30.11,NW,313,7.0,11.0,24,0.00,,,0.00,880,WeatherCatV1.20B653,2013-07-05 21:01:00,
2013-07-05 15:06:00,79.6,38.5,30.11,NW,311,3.0,10.0,23,0.00,,,0.00,830,WeatherCatV1.20B653,2013-07-05 21:06:00,
2013-07-05 15:11:00,79.9,39.9,30.11,WNW,287,5.0,6.0,24,0.00,,,0.00,243,WeatherCatV1.20B653,2013-07-05 21:11:00,
2013-07-05 15:16:00,79.8,39.8,30.11,North,349,6.0,16.0,24,0.00,,,0.00,352,WeatherCatV1.20B653,2013-07-05 21:16:00,
2013-07-05 15:21:00,79.4,39.4,30.11,North,0,3.0,3.0,24,0.00,,,0.00,357,WeatherCatV1.20B653,2013-07-05 21:21:00,
2013-07-05 15:26:00,79.8,39.8,30.11,West,270,1.0,5.0,24,0.00,,,0.00,874,WeatherCatV1.20B653,2013-07-05 21:26:00,
2013-07-05 15:31:00,79.6,41.7,30.10,SE,126,11.0,13.0,26,0.00,,,0.00,853,WeatherCatV1.20B653,2013-07-05 21:31:00,
2013-07-05 15:36:00,80.1,43.1,30.10,North,8,3.0,13.0,27,0.00,,,0.00,871,WeatherCatV1.20B653,2013-07-05 21:36:00,
2013-07-05 15:41:00,80.9,40.7,30.10,WNW,289,13.0,13.0,24,0.00,,,0.00,867,WeatherCatV1.20B653,2013-07-05 21:41:00,
2013-07-05 15:46:00,81.2,37.5,30.10,SW,223,5.0,11.0,21,0.00,,,0.00,848,WeatherCatV1.20B653,2013-07-05 21:46:00,
2013-07-05 15:51:00,81.6,37.9,30.10,WSW,253,11.0,12.0,21,0.00,,,0.00,361,WeatherCatV1.20B653,2013-07-05 21:51:00,
2013-07-05 15:56:00,81.1,37.5,30.10,SSW,213,5.0,13.0,21,0.00,,,0.00,361,WeatherCatV1.20B653,2013-07-05 21:56:00,
2013-07-05 16:01:00,80.1,37.8,30.10,WSW,257,11.0,17.0,22,0.00,,,0.00,216,WeatherCatV1.20B653,2013-07-05 22:01:00,
2013-07-05 16:06:00,79.2,37.1,30.10,WSW,256,8.0,13.0,22,0.00,,,0.00,208,WeatherCatV1.20B653,2013-07-05 22:06:00,
2013-07-05 16:11:00,79.0,38.0,30.10,SSW,205,0.0,8.0,23,0.00,,,0.00,241,WeatherCatV1.20B653,2013-07-05 22:11:00,
2013-07-05 16:16:00,79.0,36.9,30.09,WNW,294,6.0,7.0,22,0.00,,,0.00,245,WeatherCatV1.20B653,2013-07-05 22:16:00,
2013-07-05 16:21:00,79.0,38.0,30.09,West,271,6.0,11.0,23,0.00,,,0.00,216,WeatherCatV1.20B653,2013-07-05 22:21:00,
2013-07-05 16:26:00,78.6,36.6,30.09,WSW,243,8.0,17.0,22,0.00,,,0.00,229,WeatherCatV1.20B653,2013-07-05 22:26:00,
2013-07-05 16:31:00,78.5,37.6,30.09,West,271,6.0,14.0,23,0.00,,,0.00,289,WeatherCatV1.20B653,2013-07-05 22:31:00,
2013-07-05 16:36:00,78.6,37.7,30.09,WSW,251,15.0,16.0,23,0.00,,,0.00,248,WeatherCatV1.20B653,2013-07-05 22:36:00,
2013-07-05 16:41:00,78.8,38.9,30.09,NW,305,5.0,11.0,24,0.00,,,0.00,259,WeatherCatV1.20B653,2013-07-05 22:41:00,
2013-07-05 16:46:00,78.8,37.8,30.09,West,277,3.0,14.0,23,0.00,,,0.00,208,WeatherCatV1.20B653,2013-07-05 22:46:00,
2013-07-05 16:51:00,78.6,36.6,30.09,WSW,246,5.0,6.0,22,0.00,,,0.00,202,WeatherCatV1.20B653,2013-07-05 22:51:00,
2013-07-05 16:56:00,78.5,36.5,30.09,North,352,0.0,11.0,22,0.00,,,0.00,229,WeatherCatV1.20B653,2013-07-05 22:56:00,
2013-07-05 17:01:00,79.0,38.0,30.09,WSW,258,14.0,17.0,23,0.00,,,0.00,535,WeatherCatV1.20B653,2013-07-05 23:01:00,
2013-07-05 17:06:00,79.8,38.7,30.09,West,278,1.0,6.0,23,0.00,,,0.00,517,WeatherCatV1.20B653,2013-07-05 23:06:00,
2013-07-05 17:11:00,80.3,36.8,30.09,NW,322,5.0,8.0,21,0.00,,,0.00,234,WeatherCatV1.20B653,2013-07-05 23:11:00,
2013-07-05 17:16:00,79.9,37.6,30.09,NW,322,0.0,1.0,22,0.00,,,0.00,274,WeatherCatV1.20B653,2013-07-05 23:16:00,
2013-07-05 17:21:00,79.8,40.8,30.09,SSW,192,6.0,7.0,25,0.00,,,0.00,475,WeatherCatV1.20B653,2013-07-05 23:21:00,
2013-07-05 17:26:00,77.7,42.0,30.09,SSW,209,11.0,25.0,28,0.00,,,0.00,260,WeatherCatV1.20B653,2013-07-05 23:26:00,
2013-07-05 17:31:00,74.9,42.2,30.09,SSE,168,15.0,20.0,31,0.00,,,0.00,431,WeatherCatV1.20B653,2013-07-05 23:31:00,
2013-07-05 17:36:00,74.0,43.1,30.09,SSE,154,8.0,17.0,33,0.00,,,0.00,396,WeatherCatV1.20B653,2013-07-05 23:36:00,
2013-07-05 17:41:00,73.9,43.0,30.09,SSE,155,20.0,22.0,33,0.00,,,0.00,303,WeatherCatV1.20B653,2013-07-05 23:41:00,
2013-07-05 17:46:00,72.8,43.5,30.09,SSE,152,10.0,21.0,35,0.00,,,0.00,394,WeatherCatV1.20B653,2013-07-05 23:46:00,
2013-07-05 17:51:00,73.0,43.0,30.09,SSE,155,11.0,18.0,34,0.00,,,0.00,392,WeatherCatV1.20B653,2013-07-05 23:51:00,
2013-07-05 17:56:00,73.3,44.0,30.09,SE,143,11.0,17.0,35,0.00,,,0.00,348,WeatherCatV1.20B653,2013-07-05 23:56:00,
2013-07-05 18:01:00,72.3,43.8,30.09,SSE,158,15.0,24.0,36,0.00,,,0.00,222,WeatherCatV1.20B653,2013-07-06 00:01:00,
2013-07-05 18:06:00,72.3,43.8,30.09,SSE,152,16.0,19.0,36,0.00,,,0.00,368,WeatherCatV1.20B653,2013-07-06 00:06:00,
2013-07-05 18:11:00,73.0,44.5,30.09,SSE,148,12.0,17.0,36,0.00,,,0.00,348,WeatherCatV1.20B653,2013-07-06 00:11:00,
2013-07-05 18:16:00,73.3,43.2,30.09,SSE,157,10.0,13.0,34,0.00,,,0.00,343,WeatherCatV1.20B653,2013-07-06 00:16:00,
2013-07-05 18:21:00,73.3,44.0,30.09,SSE,151,11.0,20.0,35,0.00,,,0.00,333,WeatherCatV1.20B653,2013-07-06 00:21:00,
2013-07-05 18:26:00,73.9,43.0,30.09,SSW,196,13.0,17.0,33,0.00,,,0.00,304,WeatherCatV1.20B653,2013-07-06 00:26:00,
2013-07-05 18:31:00,73.2,44.6,30.09,SSE,162,13.0,14.0,36,0.00,,,0.00,274,WeatherCatV1.20B653,2013-07-06 00:31:00,
2013-07-05 18:36:00,72.8,43.5,30.09,SW,223,9.0,20.0,35,0.00,,,0.00,273,WeatherCatV1.20B653,2013-07-06 00:36:00,
2013-07-05 18:41:00,72.7,44.2,30.09,SSE,165,8.0,14.0,36,0.00,,,0.00,260,WeatherCatV1.20B653,2013-07-06 00:41:00,
2013-07-05 18:46:00,72.5,43.3,30.09,South,171,17.0,26.0,35,0.00,,,0.00,239,WeatherCatV1.20B653,2013-07-06 00:46:00,
2013-07-05 18:51:00,71.6,43.2,30.09,SSE,162,13.0,28.0,36,0.00,,,0.00,130,WeatherCatV1.20B653,2013-07-06 00:51:00,
2013-07-05 18:56:00,70.8,43.2,30.09,South,176,8.0,19.0,37,0.00,,,0.00,97,WeatherCatV1.20B653,2013-07-06 00:56:00,
2013-07-05 19:01:00,70.6,43.0,30.10,SSE,160,16.0,26.0,37,0.00,,,0.00,65,WeatherCatV1.20B653,2013-07-06 01:01:00,
2013-07-05 19:06:00,70.4,42.9,30.10,SE,141,17.0,22.0,37,0.00,,,0.00,58,WeatherCatV1.20B653,2013-07-06 01:06:00,
2013-07-05 19:11:00,70.1,43.3,30.10,South,181,8.0,29.0,38,0.00,,,0.00,53,WeatherCatV1.20B653,2013-07-06 01:11:00,
2013-07-05 19:16:00,69.9,43.1,30.10,SE,145,11.0,16.0,38,0.00,,,0.00,39,WeatherCatV1.20B653,2013-07-06 01:16:00,
2013-07-05 19:21:00,69.9,43.1,30.10,SE,138,9.0,16.0,38,0.00,,,0.00,37,WeatherCatV1.20B653,2013-07-06 01:21:00,
2013-07-05 19:26:00,69.8,43.0,30.10,East,86,7.0,10.0,38,0.00,,,0.00,26,WeatherCatV1.20B653,2013-07-06 01:26:00,
2013-07-05 19:31:00,69.6,42.9,30.12,East,89,0.0,8.0,38,0.00,,,0.00,25,WeatherCatV1.20B653,2013-07-06 01:31:00,
2013-07-05 19:36:00,69.4,42.7,30.12,ESE,109,3.0,18.0,38,0.00,,,0.00,19,WeatherCatV1.20B653,2013-07-06 01:36:00,
2013-07-05 19:41:00,69.1,42.4,30.12,SE,133,5.0,10.0,38,0.00,,,0.00,16,WeatherCatV1.20B653,2013-07-06 01:41:00,
2013-07-05 19:46:00,68.6,47.5,30.13,ESE,121,0.0,7.0,47,0.00,,,0.00,11,WeatherCatV1.20B653,2013-07-06 01:46:00,
2013-07-05 19:51:00,67.1,49.9,30.13,WSW,247,6.0,8.0,54,0.00,,,0.01,12,WeatherCatV1.20B653,2013-07-06 01:51:00,
2013-07-05 19:56:00,65.3,51.9,30.13,SW,215,0.0,0.0,62,0.20,,,0.02,11,WeatherCatV1.20B653,2013-07-06 01:56:00,
2013-07-05 20:01:00,64.5,53.7,30.12,SSW,213,0.0,0.0,68,0.08,,,0.02,11,WeatherCatV1.20B653,2013-07-06 02:01:00,
2013-07-05 20:06:00,62.9,53.0,30.12,NW,318,11.0,13.0,70,0.05,,,0.02,12,WeatherCatV1.20B653,2013-07-06 02:06:00,
2013-07-05 20:11:00,61.2,51.3,30.12,NW,322,7.0,8.0,70,0.00,,,0.02,11,WeatherCatV1.20B653,2013-07-06 02:11:00,
2013-07-05 20:16:00,60.5,49.5,30.14,WNW,298,4.0,10.0,67,0.00,,,0.02,7,WeatherCatV1.20B653,2013-07-06 02:16:00,
2013-07-05 20:21:00,60.7,52.0,30.14,WSW,253,5.0,7.0,73,0.00,,,0.02,5,WeatherCatV1.20B653,2013-07-06 02:21:00,
2013-07-05 20:26:00,60.2,51.9,30.14,WSW,246,5.0,5.0,74,0.00,,,0.02,0,WeatherCatV1.20B653,2013-07-06 02:26:00,
2013-07-05 20:31:00,60.1,52.2,30.16,WSW,247,0.0,2.0,75,0.00,,,0.02,0,WeatherCatV1.20B653,2013-07-06 02:31:00,
2013-07-05 20:36:00,60.1,52.9,30.16,WSW,247,0.0,0.0,77,0.00,,,0.02,0,WeatherCatV1.20B653,2013-07-06 02:36:00,
2013-07-05 20:41:00,60.1,51.8,30.16,WSW,246,0.0,0.0,74,0.00,,,0.02,0,WeatherCatV1.20B653,2013-07-06 02:41:00,
2013-07-05 20:46:00,60.1,50.3,30.17,NNE,14,7.0,9.0,70,0.00,,,0.02,0,WeatherCatV1.20B653,2013-07-06 02:46:00,
2013-07-05 20:51:00,60.2,52.2,30.17,NNE,14,0.0,4.0,75,0.00,,,0.02,0,WeatherCatV1.20B653,2013-07-06 02:51:00,
2013-07-05 20:56:00,60.4,49.4,30.17,NNE,31,4.0,5.0,67,0.00,,,0.02,0,WeatherCatV1.20B653,2013-07-06 02:56:00,
2013-07-05 21:01:00,61.2,48.9,30.18,East,85,0.0,5.0,64,0.00,,,0.02,0,WeatherCatV1.20B653,2013-07-06 03:01:00,
2013-07-05 21:06:00,61.6,48.5,30.18,ESE,104,0.0,5.0,62,0.00,,,0.02,0,WeatherCatV1.20B653,2013-07-06 03:06:00,
2013-07-05 21:11:00,61.8,48.6,30.18,NE,45,3.0,4.0,62,0.00,,,0.02,0,WeatherCatV1.20B653,2013-07-06 03:11:00,
2013-07-05 21:16:00,61.8,49.1,30.19,ENE,65,0.0,0.0,63,0.00,,,0.02,0,WeatherCatV1.20B653,2013-07-06 03:16:00,
2013-07-05 21:21:00,61.3,49.8,30.19,ESE,121,0.0,7.0,66,0.00,,,0.02,0,WeatherCatV1.20B653,2013-07-06 03:21:00,
2013-07-05 21:26:00,61.0,48.3,30.19,East,96,0.0,1.0,63,0.00,,,0.02,0,WeatherCatV1.20B653,2013-07-06 03:26:00,
2013-07-05 21:31:00,60.9,48.6,30.20,NNE,32,0.0,5.0,64,0.00,,,0.02,0,WeatherCatV1.20B653,2013-07-06 03:31:00,
2013-07-05 21:36:00,60.9,48.2,30.20,NNE,31,6.0,7.0,63,0.00,,,0.02,0,WeatherCatV1.20B653,2013-07-06 03:36:00,
2013-07-05 21:41:00,60.9,48.6,30.20,NNE,25,0.0,1.0,64,0.00,,,0.02,0,WeatherCatV1.20B653,2013-07-06 03:41:00,
2013-07-05 21:46:00,60.9,48.6,30.21,NNE,25,3.0,5.0,64,0.00,,,0.02,0,WeatherCatV1.20B653,2013-07-06 03:46:00,
2013-07-05 21:51:00,60.5,48.7,30.21,North,0,1.0,8.0,65,0.00,,,0.02,0,WeatherCatV1.20B653,2013-07-06 03:51:00,
2013-07-05 21:56:00,60.4,49.0,30.21,North,349,7.0,11.0,66,0.00,,,0.02,0,WeatherCatV1.20B653,2013-07-06 03:56:00,
2013-07-05 22:01:00,60.2,48.4,30.22,North,8,2.0,3.0,65,0.00,,,0.02,0,WeatherCatV1.20B653,2013-07-06 04:01:00,
2013-07-05 22:05:00,60.2,48.4,30.22,North,8,6.0,13.0,65,0.00,,,0.00,0,WeatherCatV1.20B653,2013-07-06 04:05:00,
2013-07-05 22:10:00,60.2,48.4,30.22,North,8,6.0,13.0,65,0.00,,,0.00,0,WeatherCatV1.20B653,2013-07-06 04:10:00,
2013-07-05 22:15:00,60.2,48.4,30.22,North,8,6.0,13.0,65,0.00,,,0.00,0,WeatherCatV1.20B653,2013-07-06 04:15:00,
2013-07-05 22:20:00,59.9,48.9,30.22,North,0,4.0,10.0,67,0.00,,,0.00,0,WeatherCatV1.20B653,2013-07-06 04:20:00,
2013-07-05 22:25:00,59.9,48.9,30.22,North,0,4.0,10.0,67,0.00,,,0.00,0,WeatherCatV1.20B653,2013-07-06 04:25:00,
2013-07-05 22:30:00,59.9,48.9,30.22,North,0,4.0,10.0,67,0.00,,,0.00,0,WeatherCatV1.20B653,2013-07-06 04:30:00,
2013-07-05 22:35:00,59.5,48.9,30.23,North,0,1.0,6.0,68,0.00,,,0.00,0,WeatherCatV1.20B653,2013-07-06 04:35:00,
2013-07-05 22:40:00,59.5,48.9,30.23,North,0,1.0,6.0,68,0.00,,,0.00,0,WeatherCatV1.20B653,2013-07-06 04:40:00,
2013-07-05 22:45:00,59.5,48.9,30.23,North,0,1.0,6.0,68,0.00,,,0.00,0,WeatherCatV1.20B653,2013-07-06 04:45:00,
2013-07-05 22:50:00,58.7,49.7,30.23,North,0,0.0,3.0,72,0.00,,,0.00,0,WeatherCatV1.20B653,2013-07-06 04:50:00,
2013-07-05 22:55:00,58.7,49.7,30.23,North,0,0.0,3.0,72,0.00,,,0.00,0,WeatherCatV1.20B653,2013-07-06 04:55:00,
2013-07-05 23:00:00,58.7,49.7,30.23,North,0,0.0,3.0,72,0.00,,,0.00,0,WeatherCatV1.20B653,2013-07-06 05:00:00,
2013-07-05 23:05:00,58.1,49.9,30.22,WNW,292,4.0,10.0,74,0.00,,,0.00,0,WeatherCatV1.20B653,2013-07-06 05:05:00,
2013-07-05 23:10:00,58.1,49.9,30.22,WNW,292,4.0,10.0,74,0.00,,,0.00,0,WeatherCatV1.20B653,2013-07-06 05:10:00,
2013-07-05 23:15:00,58.1,49.9,30.22,WNW,292,4.0,10.0,74,0.00,,,0.00,0,WeatherCatV1.20B653,2013-07-06 05:15:00,
2013-07-05 23:20:00,58.0,50.5,30.22,WNW,292,6.0,12.0,76,0.00,,,0.00,0,WeatherCatV1.20B653,2013-07-06 05:20:00,
2013-07-05 23:25:00,58.0,50.5,30.22,WNW,292,6.0,12.0,76,0.00,,,0.00,0,WeatherCatV1.20B653,2013-07-06 05:25:00,
2013-07-05 23:30:00,58.0,50.5,30.22,WNW,292,6.0,12.0,76,0.00,,,0.00,0,WeatherCatV1.20B653,2013-07-06 05:30:00,
2013-07-05 23:35:00,56.7,50.2,30.21,WNW,292,7.0,11.0,79,0.00,,,0.00,0,WeatherCatV1.20B653,2013-07-06 05:35:00,
2013-07-05 23:40:00,56.7,50.2,30.21,WNW,292,7.0,11.0,79,0.00,,,0.00,0,WeatherCatV1.20B653,2013-07-06 05:40:00,
2013-07-05 23:45:00,56.7,50.2,30.21,WNW,292,7.0,11.0,79,0.00,,,0.00,0,WeatherCatV1.20B653,2013-07-06 05:45:00,
2013-07-05 23:50:00,56.3,49.9,30.21,WNW,292,7.0,10.0,79,0.00,,,0.00,0,WeatherCatV1.20B653,2013-07-06 05:50:00,
2013-07-05 23:55:00,56.3,49.9,30.21,WNW,292,7.0,10.0,79,0.00,,,0.00,0,WeatherCatV1.20B653,2013-07-06 05:55:00,